weather.gov     
National Weather Service

Terminal Aerodrome Forecast
NWS Homepage
This page is being discontinued on March 12, 2014.
The same data is available at this site. Please update your bookmarks.
Thank you, and we apologize for the inconvenience.
Please send an email to SR-SRH.Webmaster@noaa.gov with any concerns.


Current Version
Previous Version:    01  02  03  04  05  06  07  08  09  10  11  12  13  14  15  16  17  18  19  20  21  22  23  24  25  26  27  28  29  30  
   31  32  33  34  35  36  37  38  39  40  41  42  43  44  45  46  47  48  49  50  51  52  53  54  55  56  57  58  59  60  
[Printable]
843
FTUS45 KMSO 301120
TAFBTM
TAF
KBTM 301120Z 3012/0112 VRB04KT P6SM OVC050
     FM301400 30005KT P6SM VCSH BKN040 OVC050
     FM302000 31008G15KT P6SM VCSH OVC050
     FM010200 31009KT P6SM OVC050=




843
FTUS45 KMSO 301120
TAFBTM
TAF
KBTM 301120Z 3012/0112 VRB04KT P6SM OVC050
     FM301400 30005KT P6SM VCSH BKN040 OVC050
     FM302000 31008G15KT P6SM VCSH OVC050
     FM010200 31009KT P6SM OVC050=


U.S. Dept. of Commerce
NOAA National Weather Service
1325 East West Highway
Silver Spring, MD 20910
E-mail: w-nws.webmaster@noaa.gov
Page last modified: May 16, 2007
NATIONAL WEATHER SERVICE: for Safety, for Work, for Fun - FOR LIFE